Lid_Strength_Index
16 19 22 21 21 19 19 20 21 20 18 19 20 19 17 18 17 17 17 16 15 14 13 13 12 12 13 13 13 13 13 14 14 15 16 16 16 15 15 15 14 14 13 13
18 21 19 18 18 19 19 21 21 19 18 19 19 19 17 18 17 17 17 16 16 15 14 14 13 14 13 13 13 13 13 14 14 15 15 15 15 15 15 14 13 12 12 13
20 20 18 19 20 20 20 21 21 21 19 18 20 18 18 18 17 16 16 15 15 15 15 15 14 14 15 15 14 14 14 14 14 14 14 14 14 14 14 14 13 12 12 12
20 19 19 19 20 20 21 19 20 20 20 22 19 21 19 19 18 17 16 16 16 15 15 15 15 15 15 14 15 14 14 14 14 14 14 15 15 15 14 14 13 13 12 12
21 21 21 20 20 20 20 19 20 20 21 21 21 22 18 18 19 18 16 16 15 15 15 15 15 14 14 14 15 14 14 14 14 15 14 15 15 14 14 15 14 14 13 13
21 20 21 21 20 19 18 20 19 20 21 24 23 22 20 18 18 17 17 17 16 15 14 14 15 15 15 15 14 15 15 14 14 15 15 15 15 14 14 14 14 14 13 13
20 21 21 20 21 19 20 21 24 22 24 23 23 24 19 18 17 17 17 17 16 16 14 14 15 16 16 16 15 14 15 15 14 14 15 15 15 15 14 14 14 14 14 13
22 21 21 20 22 22 21 21 23 27 26 24 22 25 19 17 17 17 16 17 17 16 15 14 14 15 16 16 16 15 14 14 14 14 14 14 14 14 14 14 14 14 14 13
23 21 22 21 21 21 21 23 21 28 35 29 23 21 17 17 17 16 16 17 16 16 15 15 15 14 14 15 16 15 15 14 14 13 13 13 13 13 13 13 13 14 13 13
21 22 22 22 22 21 22 21 23 26 28 30 24 23 20 18 18 17 17 17 16 15 15 14 14 14 14 13 14 15 15 15 14 14 14 13 13 13 13 13 13 13 13 13
20 20 21 22 22 22 24 23 23 23 24 28 29 23 18 18 18 18 17 16 14 14 14 14 14 14 14 13 14 14 15 15 14 14 14 14 14 13 13 13 13 13 13 13
20 21 25 22 23 23 22 22 22 25 26 25 26 23 15 16 17 16 14 14 13 13 13 14 15 15 14 14 14 14 14 14 14 14 14 13 13 13 13 13 12 12 13 12
19 22 26 21 21 22 23 21 20 25 25 26 27 22 16 15 14 14 15 14 14 14 14 14 14 14 13 13 13 12 13 12 12 13 13 13 13 12 12 12 11 12 12 12
17 21 21 21 19 20 22 23 23 24 24 21 21 19 16 15 16 15 15 15 15 14 14 14 13 13 12 12 11 11 11 11 12 12 12 13 12 12 11 11 11 11 11 11
17 20 22 23 21 21 20 20 20 23 20 23 19 19 16 16 17 16 15 14 15 15 14 14 14 13 12 11 11 10 10 11 11 11 11 11 11 11 11 10 10 10 10 10
19 22 26 27 23 20 21 19 19 19 19 20 19 19 17 17 16 15 15 14 15 14 14 14 13 12 12 11 11 10 11 10 10 10 10 9 10 10 10 10 10 10 10 10
19 20 24 27 25 27 27 22 18 18 18 18 21 18 17 18 18 17 17 15 14 15 15 13 13 12 12 12 11 11 11 10 10 10 10 10 10 10 10 10 10 10 10 9
21 20 20 26 28 31 20 18 17 17 16 18 18 19 18 19 18 17 16 16 16 15 14 13 12 12 12 11 11 10 10 10 9 10 9 9 9 8 8 9 9 9 8 8
16 17 21 23 30 23 18 18 19 19 19 18 20 19 18 18 18 17 15 14 13 14 13 13 12 12 11 11 11 10 10 9 9 9 8 8 7 7 7 8 8 8 8 8
18 16 18 21 23 28 20 18 16 16 21 17 19 19 19 18 22 20 16 15 15 14 13 13 12 12 12 11 11 10 10 10 10 9 8 7 7 6 6 6 7 8 8 7
20 19 19 18 20 22 18 16 16 22 19 18 17 17 18 19 18 16 15 15 14 13 13 12 11 12 11 10 9 9 9 8 6 6 6 5 5 6 5 6 6 6 7 7
21 21 20 19 21 22 16 17 17 15 16 16 17 17 17 16 15 15 14 14 13 13 12 11 11 10 8 8 8 8 7 5 4 4 4 3 3 3 4 4 5 6 6 7
20 17 19 17 17 13 14 14 14 15 16 16 16 15 16 15 15 14 14 13 13 12 11 10 9 8 7 6 6 6 5 4 4 4 4 3 3 3 3 4 5 6 6 7
18 15 18 16 15 13 13 14 14 13 13 13 13 14 15 15 14 13 13 12 12 11 10 8 7 7 7 5 5 5 4 4 4 5 5 4 4 4 4 4 4 5 7 7
17 16 17 16 14 13 14 13 12 12 13 13 13 13 13 13 12 12 11 10 9 8 7 6 6 4 4 4 4 4 4 4 5 5 5 5 4 5 5 5 5 6 6 6
15 15 16 17 13 13 14 13 12 14 13 13 13 13 12 12 11 10 9 7 7 7 6 5 3 4 4 4 5 5 4 5 6 6 6 6 6 6 6 6 6 3 3 3